EW9099 Bjarsjolagard SE current weather conditions

sailwx.info

Wind from 344

Air temperature 9.4° C
Dewpoint 8.7° C

Last reported at 2020-Aug-04 05:00 UTC.
Time now 2020-Aug-04 06:00 UTC

Location: N 55°44' E 013°41'.
View on Google Maps.

See reports from other nearby stations

  
Tides and Currents Weather Stations Pressure Air Temp Water Temp Dewpoint Dewpoint Depression Visibility Wind Speed Wind Dir Waves Ship Positions
date/time (UTC)wind fromknots sea level pressurealtimeterstation pressurevisibilityair tempwater tempwave heightnotes
2020-Aug-04 05:00 344 9.4
2020-Aug-04 04:45 344 8.3
2020-Aug-04 04:30 344 7.8
2020-Aug-04 04:15 344 7.2
2020-Aug-04 04:00 344 7.2
2020-Aug-04 03:45 344 7.2
2020-Aug-04 03:30 344 7.2
2020-Aug-04 03:15 344 7.2
2020-Aug-04 03:00 344 7.2
2020-Aug-04 02:45 344 7.8
2020-Aug-04 02:30 344 7.8
2020-Aug-04 02:16 344 7.8
2020-Aug-04 01:46 344 8.3
2020-Aug-04 01:31 344 8.3
2020-Aug-04 01:17 344 8.3
2020-Aug-04 01:01 344 8.3
2020-Aug-04 00:47 344 8.3
2020-Aug-04 00:31 344 8.3
2020-Aug-04 00:16 344 8.9
2020-Aug-04 00:00 344 8.9
2020-Aug-03 23:46 344 8.9
2020-Aug-03 23:31 344 8.9
2020-Aug-03 23:17 344 8.9
2020-Aug-03 23:01 344 8.9
2020-Aug-03 22:46 344
2020-Aug-03 22:31
2020-Aug-03 22:15 344 8.9
2020-Aug-03 22:00 344 9.4
2020-Aug-03 21:46 344 9.4
2020-Aug-03 21:30 344 9.4
2020-Aug-03 21:16 344 10.0
2020-Aug-03 21:00 344 10.6
2020-Aug-03 20:45 344 11.1
2020-Aug-03 20:30 344 11.1
2020-Aug-03 20:15 344 11.7
2020-Aug-03 20:00 344 12.2
2020-Aug-03 19:45 344 12.8
2020-Aug-03 19:30 344 13.3
2020-Aug-03 19:15 344 13.9
2020-Aug-03 19:00 344 0 gusting 3 14.4
2020-Aug-03 18:45 344 0 gusting 4 15.0
2020-Aug-03 18:30 355 0 gusting 3 15.6
2020-Aug-03 18:15 341 0 gusting 3 15.6
2020-Aug-03 18:00 337 1 gusting 4 16.1
2020-Aug-03 17:45 355 2 gusting 5 16.7
2020-Aug-03 17:30 336 2 gusting 5 16.7
2020-Aug-03 17:15 346 3 gusting 8 16.7
2020-Aug-03 17:00 344 3 gusting 10 17.2
2020-Aug-03 16:45 332 3 gusting 7 17.2
2020-Aug-03 16:30 355 3 gusting 10 17.8
2020-Aug-03 16:15 026 4 gusting 10 18.3
2020-Aug-03 16:00 360 1 gusting 7 19.4
2020-Aug-03 15:45 333 0 gusting 5 20.0
2020-Aug-03 15:30 355 2 gusting 9 19.4
2020-Aug-03 15:15 335 0 gusting 8 20.0
2020-Aug-03 14:46 005 0 gusting 6 20.6
2020-Aug-03 14:31 279 0 gusting 7 20.0
2020-Aug-03 14:16 355 1 gusting 6 19.4
2020-Aug-03 13:46 355 2 gusting 5 18.9
2020-Aug-03 13:31 355 0 gusting 8 18.9
2020-Aug-03 13:16 057 0 gusting 3 18.9
2020-Aug-03 13:02 325 1 gusting 7 18.9
2020-Aug-03 12:46 310 1 gusting 8 19.4
2020-Aug-03 12:33 022 2 gusting 8 20.0
2020-Aug-03 12:16 355 0 gusting 4 19.4
2020-Aug-03 12:01 330 1 gusting 9 18.9
2020-Aug-03 11:46 331 0 gusting 7 18.9
2020-Aug-03 11:31 332 1 gusting 8 19.4
2020-Aug-03 11:16 292 1 gusting 7 18.3
2020-Aug-03 11:01 033 1 gusting 5 18.9
2020-Aug-03 10:46 355 0 gusting 6 19.4
2020-Aug-03 10:31 012 2 gusting 6 20.0
2020-Aug-03 10:16 355 1 gusting 5 18.3
2020-Aug-03 10:01 312 2 gusting 6 19.4
2020-Aug-03 09:47 268 2 gusting 5 18.9
2020-Aug-03 09:30 010 0 gusting 9 18.3
2020-Aug-03 09:15 036 0 gusting 5 17.8
2020-Aug-03 09:01 039 0 gusting 4 17.8
2020-Aug-03 08:46 317 2 gusting 5 18.3
2020-Aug-03 08:31 340 0 gusting 5 17.8
2020-Aug-03 08:15 355 2 gusting 6 17.2
2020-Aug-03 08:00 284 0 gusting 5 17.2
2020-Aug-03 07:45 021 0 gusting 4 17.2
2020-Aug-03 07:30 325 0 gusting 5 16.7
2020-Aug-03 07:16 029 1 gusting 6 16.1
2020-Aug-03 07:00 340 1 gusting 7 15.0
2020-Aug-03 06:45 329 1 gusting 7 15.0
2020-Aug-03 06:30 324 1 gusting 7 14.4
2020-Aug-03 06:15 315 1 gusting 7 13.9
2020-Aug-03 06:00 332 1 gusting 6 13.9
2020-Aug-03 05:45 005 0 gusting 2 13.9
2020-Aug-03 05:30 341 13.9
2020-Aug-03 05:15 341 13.9
2020-Aug-03 05:00 311 13.9
2020-Aug-03 04:45 343 0 gusting 0 14.4
2020-Aug-03 04:31
2020-Aug-03 04:15 005 0 gusting 5 14.4
2020-Aug-03 04:00 355 0 gusting 5 14.4
2020-Aug-03 03:45 346 0 gusting 3 14.4
2020-Aug-03 03:30 335 0 gusting 3 15.0
2020-Aug-03 03:15 012 15.0
2020-Aug-03 03:00 355 15.0
2020-Aug-03 02:45 355 15.0
2020-Aug-03 02:30 005 14.4
2020-Aug-03 02:15 005 14.4
2020-Aug-03 02:00 005 14.4
2020-Aug-03 01:45 005 14.4
2020-Aug-03 01:30 005 0 gusting 2 13.9
2020-Aug-03 01:16 005 13.9
2020-Aug-03 01:04 005 0 gusting 1 13.9
2020-Aug-03 00:47 005 13.3
2020-Aug-03 00:31 011 0 gusting 2 12.8
2020-Aug-03 00:17 309 1 gusting 3 12.8
2020-Aug-03 00:01 273 12.8
2020-Aug-02 23:46 273 12.8
2020-Aug-02 23:31 273 12.8
2020-Aug-02 23:16 227 0 gusting 1 12.8
2020-Aug-02 23:01 227 12.2
2020-Aug-02 22:46 227 12.2
2020-Aug-02 22:31 227 12.2
2020-Aug-02 22:15 227 12.2
2020-Aug-02 22:00 227 12.2
2020-Aug-02 21:46 227 12.8
2020-Aug-02 21:31 227 12.8
2020-Aug-02 21:16 227 12.8
2020-Aug-02 21:01 227 13.3
2020-Aug-02 20:45 227 13.3
2020-Aug-02 20:31 227 13.9
2020-Aug-02 20:15 227 14.4
2020-Aug-02 20:01 227 14.4
2020-Aug-02 19:45 227 15.6
2020-Aug-02 19:30 227 16.1
2020-Aug-02 19:15 227 16.7
2020-Aug-02 19:00 227 17.2
2020-Aug-02 18:45 227 17.8
2020-Aug-02 18:30 220 17.8
2020-Aug-02 18:15 297 18.3
2020-Aug-02 17:45 301 0 gusting 3 18.3
2020-Aug-02 17:30 360 18.3
2020-Aug-02 17:15 355 0 gusting 5 18.3
2020-Aug-02 17:00 005 0 gusting 3 18.9
2020-Aug-02 16:45 360 18.9
2020-Aug-02 16:15 344 1 gusting 6 20.0
2020-Aug-02 16:00 032 0 gusting 3 20.0
2020-Aug-02 15:45 294 1 gusting 4 20.0
2020-Aug-02 15:31 337 0 gusting 4 20.0
2020-Aug-02 15:15 310 0 gusting 8 20.0
2020-Aug-02 15:00 128 0 gusting 3 20.6
2020-Aug-02 14:45 321 0 gusting 4 20.6
2020-Aug-02 14:30 303 1 gusting 4 21.1
2020-Aug-02 14:15 305 1 gusting 4 22.2
2020-Aug-02 14:00 316 0 gusting 4 22.2
2020-Aug-02 13:45 126 0 gusting 4 22.2
2020-Aug-02 13:30 051 1 gusting 6 22.2
2020-Aug-02 13:15 042 1 gusting 5 21.1
2020-Aug-02 13:00 267 0 gusting 4 21.1
2020-Aug-02 12:45 265 0 gusting 5 21.1
2020-Aug-02 12:16 111 0 gusting 3 21.7
2020-Aug-02 12:02 343 0 gusting 3 21.7
2020-Aug-02 11:46 057 1 gusting 4 21.7
2020-Aug-02 11:32 332 1 gusting 4 21.7
2020-Aug-02 11:16 084 0 gusting 5 21.1
2020-Aug-02 11:01 349 20.6
2020-Aug-02 10:46 066 0 gusting 4 20.6
2020-Aug-02 10:31 263 0 gusting 3 20.0
2020-Aug-02 10:17 252 0 gusting 2 20.6
2020-Aug-02 10:01 275 0 gusting 3 20.6
2020-Aug-02 09:46 287 0 gusting 6 20.6
2020-Aug-02 09:31 194 20.6
2020-Aug-02 09:16 198 1 gusting 5 20.0
2020-Aug-02 09:00 210 0 gusting 2 19.4
2020-Aug-02 08:46 182 0 gusting 4 18.9
2020-Aug-02 08:31 297 0 gusting 2 18.3
2020-Aug-02 08:15 211 0 gusting 3 18.3
2020-Aug-02 08:01 010 17.8
2020-Aug-02 07:46 304 17.2
2020-Aug-02 07:31 017 0 gusting 2 17.2
2020-Aug-02 07:16 249 17.2
2020-Aug-02 07:01 198 17.2
2020-Aug-02 06:45 208 0 gusting 5 17.2
2020-Aug-02 06:30 200 2 gusting 5 16.7
2020-Aug-02 06:15 213 3 gusting 6 16.7
2020-Aug-02 06:00 180 3 gusting 6 16.7